CZ-6A DEB, 60847

Orbit data source: Space-Track

CZ-6A DEB, 60847 is space debris in LEO originally from a launch on Tue, 06 Aug 2024 UTC launched from the Taiyaun Space Center, China (TSC). Debris objects in space refer to the collection of defunct objects orbiting the Earth. Examples of debris include non-operational satellites, rocket bodies, and fragments generated from explosions, collisions, or faulty payload assembly.

Loading next visibility...
Identifier
60847, 2024-140JA
Orbit
LEO
Country
Flag of CNCN / PRC
Related business
Manufacturer
SAST
Mission
Spacecraft
Bus & Motor
Unknown
Mass
Unknown
Launch date (UTC)
2024-08-06 (2 years ago)
Launch vehicle
Unknown
Launch site
Taiyaun Space Center, China (TSC)
Object type
Payload
Rocket body
Debris
Shape & HBR
Unknown shape, 0.1 m
Radar Cross Section
Medium (>0.1 m² and <1 m²)

Expand to show TLE details & history
Last TLE update: 1 day ago

TLE from 1 day ago
0 CZ-6A DEB
1 60847U 24140JA  26170.69408829  .00002802  00000-0  95563-3 0  9991
2 60847  88.9636 269.8401 0025971 195.1787 164.8636 14.36042435 96640
Epoch: 2026-06-19T16:39Z
TLE epoch observation values (Epoch: 2026-06-19T16:39:29.228Z)
Latitude
0.00001°
Longitude
112.04893°
Altitude
792.612 km
Speed
7.448 km/s
True Right ascension
17h 59m 21s
True Declination
0° 00' 00"
Sunlit
Object was in full shadow at epoch
Visualization orbit readout
Latitude
Unknown
Longitude
Unknown
Altitude
Unknown
Speed
Unknown
Apparent Right ascension
Unknown
Apparent Declination
Unknown
Sunlit
N/A
Visualization observer readout
Local Sidereal Time
07:21:30
Azimuth
Unknown
Elevation
Unknown
Doppler factor
Unknown
Orbital elements
Apogee altitude
787.093 km
Perigee altitude
749.972 km
Semi-major axis
7,146.67 km
Eccentricity
0.0026
Inclination
88.9636°
RAAN
269.8401°
Arg. of periapsis
195.1787°
True anomaly
164.94107°
Mean anomaly
164.8636°
Eccentric anomaly
164.90236°
Mean motion
3.59242 °/min
Orbital period
100.21 mins
BSTAR
0.00095563
Loading maneuver chart data...
Computing Atmospheric mass density...
Loading historical data...
Loading historical data...
Loading historical data...
Loading historical data...
Loading historical data...
Loading historical data...
Loading historical data...

Documentation

Showing up to 5 results
|